Regional Weather Roundup
Issued by NWS Jackson, KY

Home | Current Version | Previous Version | Text Only | Print | Product List | Glossary On
Versions: 1 2 3 4 5 6 7 8 9 10 11 12 13 14 15 16 17 18 19 20 21 22 23 24 25 26 27 28 29 30 31 32 33 34 35 36 37 38 39 40 41 42 43 44 45 46 47 48 49 50
000
ASUS43 KJKL 020710
RWRJKL

EAST KENTUCKY HOURLY WEATHER ROUNDUP
NATIONAL WEATHER SERVICE JACKSON KY
300 AM EDT SUN AUG 02 2015

NOTE: "FAIR" INDICATES FEW OR NO CLOUDS BELOW 12,000 FEET WITH
NO SIGNIFICANT WEATHER AND/OR OBSTRUCTIONS TO VISIBILITY.

* THESE REPORTS ARE NOT UNDER NWS QUALITY CONTROL AND MAY NOT
  REPORT WEATHER SUCH AS PRECIPITATION AND FOG.

KYZ079-080-083-085-087-088-110-112-115-119-120-020800
...EASTERN KENTUCKY...

CITY           SKY/WX    TMP DP  RH WIND       PRES   REMARKS
JACKSON        MOCLDY    68  59  73 CALM      30.02F
LONDON         PTCLDY    64  58  80 CALM      30.02F
SOMERSET*      CLEAR     61  61 100 CALM      30.02F
MONTICELLO*    CLEAR     60  60 100 CALM      30.04F
WILLIAMSBURG*  CLEAR     61  61 100 CALM      30.02F
MIDDLESBORO*   PTCLDY    62  61  97 CALM      30.02S
HAZARD APT*    SUNNY     63  63 100 CALM      30.02S
BLACK MTN*       N/A     61  55  82 N3          N/A
PIKEVILLE APT* CLEAR     64  63  94 CALM      30.03R
BIG SANDY*     PTSUNNY   64  63  96 CALM      30.02S
MOREHEAD APT*  MOSUNNY   64  63  94 CALM      30.03F
$$

KYZ035-036-041-042-044-050-067-078-099-020800
...CENTRAL KENTUCKY...

CITY           SKY/WX    TMP DP  RH WIND       PRES   REMARKS
MT STERLING*   PTCLDY    61  61 100 CALM      30.03S
FLEMING/MASON* CLEAR     64  59  82 SW3       30.02S
DANVILLE*      PTCLDY    61  59  94 CALM      30.03S
RICHMOND*      PTCLDY    64  59  82 CALM      30.02S
LEXINGTON      CLEAR     64  59  83 CALM      30.02S
FRANKFORT      CLEAR     62  59  90 CALM      30.00F
$$

KYZ091>093-OHZ055-061-077-WVZ005-015-034-035-042-020800
...SOUTHERN OHIO/WEST VIRGINIA...

CITY           SKY/WX    TMP DP  RH WIND       PRES   REMARKS
COVINGTON      PTCLDY    64  60  87 CALM      30.00S
COLUMBUS       PTCLDY    67  58  72 CALM      29.97R
DAYTON         MOCLDY    66  59  78 SW6       29.99S
WILMINGTON     PTCLDY    62  58  86 SW3       30.00S
HUNTINGTON     PTCLDY    61  61 100 S5        30.00R
CHARLESTON     PTCLDY    63  60  90 CALM      29.99F
PINEVILLE*     PTCLDY    59  59 100 MISG      30.09S
BECKLEY        CLEAR     59  55  87 CALM      30.06F
BLUEFIELD      PTCLDY    64  55  72 SW5       30.08S
$$

VAZ002-007-008-TNZ017-027-036-066-071-020800
...SOUTHWEST VIRGINIA/EAST TENNESSEE...

CITY           SKY/WX    TMP DP  RH WIND       PRES   REMARKS
WISE*          PTCLDY    63  61  94 CALM      30.09S
ABINGDON*      CLEAR     63  60  88 CALM      30.05S
BRISTOL        PTCLDY    61  59  93 CALM      30.02S
KNOXVILLE      PTCLDY    69  64  84 CALM      29.98F
OAK RIDGE      CLEAR     66  62  87 CALM      30.00F
CROSSVILLE     CLEAR     64  60  87 CALM      30.04F
NASHVILLE      CLEAR     68  62  81 CALM      29.99F
$$

...KEY TO REMARKS...
VSB - VISIBILITY IN MILES
WCI - WIND CHILL INDEX
HX  - HEAT INDEX

$$



USA.gov is the U.S. government's official web portal to all federal, state and local government web resources and services.